Location: Arpaise
(41.0333°N, 14.7333°E)
Time: 16:55:15
(UTC+00:00)

Thor Agena Rocket - Pass Details

Date: 05 July 2020
Orbit: 759 x 808 km, 99.0° (Epoch: 10 August)

Event Time Altitude Azimuth Distance (km) Brightness Sun altitude
Rises 22:24:48 0° 6° (N) 3,261 7.9 -25.6°
Reaches altitude 10° 22:27:14 10° 360° (N) 2,323 7.0 -25.7°
Maximum altitude 22:32:00 41° 291° (WNW) 1,093 4.4 -25.8°
Enters shadow 22:33:19 35° 255° (WSW) 1,227 4.4 -25.9°
